Sobat POKER ONLINE - Agen DEWAPOKER Indonesia Terpercaya SOBAT POKER88

Jackpot

Texas Poker Multi Jackpot System

Kini Telah hadir Jackpot SUPER ROYAL FLUSH

Kini Telah hadir Jackpot 2000 (khusus table VIP keatas).

Ikutilah global jackpot yang tersedia di system kami, dengan system jackpot terbaru dan pertama di indonesia, anda dapat membeli jackpot dengan harga 100 rupiah saja dan menangkan hadiahnya hingga puluhan juta rupiah.

Jackpot bukanlah suatu keharusan untuk dibeli, namun kami memberikan suatu fitur tambahan untuk member tercinta dari www.sobatpoker88.com.

Terdapat tiga pilihan harga jackpot yang bisa anda beli yaitu :100,500,1000 dan 2000(khusus table VIP Keatas) rupiah.

Hadiah dari Multi jackpot system www.sobatpoker88.com

  1. full house x 10 harga jackpot yang anda beli.
      (contoh:anda membeli 1000 maka:1000 X10 = 10.000)
  2. four of kind x 250 harga jackpot yang anda beli
      (contoh:anda membeli 1000 maka:1000 X250 = 250.000)
  3. Straight flush x 1200
      (contoh:anda membeli 1000 maka:1000 X1200 = 1.200.000)
  4. Royal flush x 10000 harga jackpot yang anda beli
      (contoh:anda membeli 1000 maka:1000 X10000 = 10.000.000)
  5. SUPER ROYAL FLUSH x 30000 harga jackpot yang anda beli
      (contoh:anda membeli 1000 maka:1000 X30000 = 30.000.000)

Kondisi kartu

  1. full house adalah kondisi kartu dimana kartu anda dan kartu tengah dengan total 7 kartu bisa mendapatkan nilai 5 kartu dengan kombinasi 1 tris(three of kind) dan 1 pair, contoh 3 kartu 10 dan 2 kartu 5
  2. Four of kind adalah kondisi kartu dimana kartu anda dan kartu tengah dengan total 7 kartu bisa mendapatkan nilai 5 kartu dengan kombinasi 4 kartu yang sama jumlah dan 1 kartu apapun juga contoh anda mendapatkan 4 buah kartu angka 3 dan 1 kartu apapun.
  3. Staright flush adalah kondisi kartu dimana kartu anda dan kartu tengah dengan total 7 kartu bisa mendapatkan nilai 5 kartu dengan kombinasi seri / staright dengan kembang yang sama contoh : urutan kartu dari angka 5, 6, 7, 8 , 9 10 dengan kembang yg sama misalnya as hati
  4. Royal flush adalah kondisi kartu dimana kartu anda dan kartu tengah dengan total 7 kartu bisa mendapatkan nilai 5 kartu dengan kombinasi seri / staright dengan kembang yang sama tetapi kartu tersebut haruslah dimulai dari 10. contoh 10, Queen, Jack, King dan aces dengan kembang yang sama
  5. Super Royal flush adalah kondisi kartu dimana Kedua kartu anda digabung dengan 3 kartu pertama meja haruslah royal flush. contoh kartu anda 10,Queen kembang sama dan 3 kartu pertama meja adalah Jack, King dan aces dengan kembang yang sama

Demikian adalah penjelasan dari Multi Jackpot www.sobatpoker88.com terima kasih dan selamat bermain salam hoki dari kami

Texas Poker Jackpot Winner

TOP SUPER ROYAL FLUSH
No.TanggalNamaPriceWin
119/09 09:32VISUAL_88Super Royal flush30,000,000
219/09 04:30SEKELESuper Royal flush6,000,000
319/09 03:55E89695E9Super Royal flush6,000,000
419/09 03:47BANGS4Super Royal flush3,000,000
519/09 03:32MANAP994Super Royal flush6,000,000
TOP ROYAL FLUSH
No.TanggalNamaPriceWin
119/09 13:53SITARUM1Royal flush1,000,000
219/09 13:49ASHUN86Royal flush2,000,000
319/09 13:38PCK4ONE77Royal flush2,000,000
419/09 13:26JP_1NRoyal flush2,000,000
519/09 12:49RASKIN11Royal flush2,000,000
TOP STRAIGHT FLUSH
No.TanggalNamaPriceWin
119/09 14:02JIBANSStraight Flush600,000
219/09 14:01ARPAS99Straight Flush120,000
319/09 13:57GIBEG87Straight Flush240,000
419/09 13:56PERBUSAStraight Flush240,000
519/09 13:55DECIS87Straight Flush240,000
LATEST JACKPOT
No.TanggalNamaPriceWin
119/09 14:03UYW3KEH415Full House10,000
219/09 14:03LIUP4YC3NFull House2,000
319/09 14:02FD6B932BFull House1,000
419/09 14:02BODDD111Full House5,000
519/09 14:02AXEL1989Full House5,000
619/09 14:02IMUNG32Full House2,000
719/09 14:02PEDRO92Full House5,000
819/09 14:02RIVALDY199Full House2,000
919/09 14:02DOMINICQQFull House10,000
1019/09 14:02KOONINFull House5,000
1119/09 14:02BINTANGQQFull House2,000
1219/09 14:02XXX819Full House2,000
1319/09 14:02HASDEWIFull House2,000
1419/09 14:02GREMAK77Full House2,000
1519/09 14:02DENI333Four Of A Kind25,000
1619/09 14:02SAKIR0709Full House5,000
1719/09 14:02IDAY779Full House2,000
1819/09 14:02EXP4Y3DFull House5,000
1919/09 14:02FR33DOMFull House1,000
2019/09 14:02F072F7E3Full House2,000
2119/09 14:02B0E3BE80Full House2,000
2219/09 14:02W8IUIVB12YFull House5,000
2319/09 14:02CONSITIFour Of A Kind250,000
2419/09 14:02GHREUTFull House5,000
2519/09 14:02RIKLONA50Full House10,000
2619/09 14:02JIBANSStraight Flush600,000
2719/09 14:02T4DZP0909Full House2,000
2819/09 14:02THAKURFour Of A Kind50,000
2919/09 14:02RUDI03Full House2,000
3019/09 14:02BINTANGQQFull House2,000
3119/09 14:02BOIMZ28Full House2,000
3219/09 14:02KEISH41111Full House2,000
3319/09 14:02HANAFFI89Full House2,000
3419/09 14:02GEPAK6666Full House10,000
3519/09 14:02A39ERA91910Full House2,000
3619/09 14:02KUTU4_6Four Of A Kind50,000
3719/09 14:02KELENTET86Four Of A Kind25,000
3819/09 14:02RFC71Full House1,000
3919/09 14:02ITS4P_Full House2,000
4019/09 14:02CUTE99Full House2,000
4119/09 14:02RIFKI25Full House2,000
4219/09 14:02DERAJA1001Full House5,000
4319/09 14:02HUASAN888Full House1,000
4419/09 14:02SMAILFull House10,000
4519/09 14:02TELENG_09Full House1,000
4619/09 14:02QTI591AJRIFull House5,000
4719/09 14:02DC34936FFull House2,000
4819/09 14:02D1FD643BFull House1,000
4919/09 14:02AJID_888Full House2,000
5019/09 14:02ID_LUPUSFour Of A Kind25,000

Domino Multi Jackpot System

Ikutilah global jackpot yang tersedia di system kami, dengan system jackpot terbaru dan pertama di indonesia, anda dapat membeli jackpot dengan harga 100 rupiah saja dan menangkan hadiahnya hingga puluhan juta rupiah.

Jackpot bukanlah suatu keharusan untuk dibeli, namun kami memberikan suatu fitur tambahan untuk member tercinta dari www.sobatpoker88.com.

Terdapat tiga pilihan harga jackpot yang bisa anda beli yaitu :100,500 dan 1000 rupiah.

Hadiah dari Multi jackpot system www.sobatpoker88.com

  1. Murni Kecil x 50 harga jackpot yang anda beli.
      (contoh:anda membeli 1000 maka:1000 X 50 = 50.000)
  2. Murni Besar x 50 harga jackpot yang anda beli
      (contoh:anda membeli 1000 maka:1000 X 50 = 50.000)
  3. BALAK x 100 harga jackpot yang anda beli
      (contoh:anda membeli 1000 maka:1000 X 100 = 100.000)
  4. ENAM DEWA x 6666 harga jackpot yang anda beli
      (contoh:anda membeli 1000 maka:1000 X 6666 = 6.666.000)

Demikian adalah penjelasan dari Multi Jackpot www.sobatpoker88.com terima kasih dan selamat bermain salam hoki dari kami

Domino Jackpot Winner

TOP ENAM DEWA
No.TanggalNamaPriceWin
119/09 12:23BOSNCOS99murni enam6,666,000
219/09 08:30O012345murni enam6,666,000
319/09 08:09RADEN_JAZZmurni enam3,333,000
419/09 07:23CAMONKKmurni enam6,666,000
519/09 05:25IMPOR202murni enam3,333,000
TOP BALAK
No.TanggalNamaPriceWin
119/09 14:02RUWET20balak10,000
219/09 14:01IKYYYbalak50,000
319/09 14:01CADASbalak100,000
419/09 14:01TONK98balak50,000
519/09 13:59KOROTZ46balak10,000
LATEST JACKPOT
No.TanggalNamaPriceWin
119/09 14:02GUN4ONEmurni besar25,000
219/09 14:02RUWET20balak10,000
319/09 14:01IKYYYbalak50,000
419/09 14:01CADASbalak100,000
519/09 14:01TONK98balak50,000
619/09 14:00BRONIZ15murni besar50,000
719/09 13:59KOROTZ46balak10,000
819/09 13:59SANGGbalak100,000
919/09 13:59BHELERRRRlucky9925,000
1019/09 13:58B8523706murni kecil50,000
1119/09 13:57KOROTZ46murni besar5,000
1219/09 13:56MAKKARAENGbalak50,000
1319/09 13:56GUDEL60lucky992,500
1419/09 13:56TEMPEKTUO1balak100,000
1519/09 13:55ANTUBANYU9murni besar25,000
1619/09 13:55IIJOObalak50,000
1719/09 13:55SBG777murni kecil5,000
1819/09 13:54DOKODEOmurni besar50,000
1919/09 13:54MONG99murni besar25,000
2019/09 13:54UMMAT69balak100,000
2119/09 13:54VALETGM2murni kecil50,000
2219/09 13:53N49UNbalak50,000
2319/09 13:53ANTUBANYU9balak50,000
2419/09 13:52NHYNHY99murni besar25,000
2519/09 13:52JHON_1701murni besar50,000
2619/09 13:52GONDEL06murni kecil5,000
2719/09 13:51EDG62XFES6murni besar25,000
2819/09 13:51AMSEO99murni kecil25,000
2919/09 13:51CVAY123murni kecil50,000
3019/09 13:51T212BOM99murni kecil5,000
3119/09 13:51RAJA4317murni kecil50,000
3219/09 13:51AKMALIBNUmurni kecil25,000
3319/09 13:50BATTEWmurni besar50,000
3419/09 13:49PANOR123murni besar5,000
3519/09 13:49RIZKYP90murni besar5,000
3619/09 13:49BONGMONlucky9910,000
3719/09 13:49J4Y4murni kecil5,000
3819/09 13:48DASLIM45murni besar5,000
3919/09 13:48YAN99_99murni kecil50,000
4019/09 13:47NURISKAK50murni kecil25,000
4119/09 13:47SAPI696969murni kecil5,000
4219/09 13:47PIYOPIYOmurni besar25,000
4319/09 13:46JPBOS151murni kecil50,000
4419/09 13:46MBAHREBO99murni kecil50,000
4519/09 13:46ADI8900murni kecil5,000
4619/09 13:46TDHMXS911Tmurni besar25,000
4719/09 13:46KOKILA5murni besar5,000
4819/09 13:45BAOK6murni besar50,000
4919/09 13:45B72A8394balak10,000
5019/09 13:45J33XP88Tmurni besar25,000

Ceme Multi Jackpot System

Jackpot dilihat dari gabungan kartu pemain dengan kartu bandar. Bandar harus membeli jackpot sebanyak jumlah player yang sedang duduk. Sebagai contoh bila terdapat 3 pemain duduk bermain, dan bandar memutuskan untuk membeli jackpot Rp 1.000, maka pada periode tersebut bandar akan membeli jackpot sebanyak 3xRp1.000 = Rp3.000.

Jackpot bukanlah suatu keharusan untuk dibeli, namun kami memberikan suatu fitur tambahan untuk member tercinta dari www.sobatpoker88.com.

Terdapat tiga pilihan harga jackpot yang bisa anda beli yaitu :100,500 dan 1000 rupiah.

Hadiah dari Multi jackpot system www.sobatpoker88.com

  1. Murni Kecil x 50 harga jackpot yang anda beli.
      (contoh:anda membeli 1000 maka:1000 X 50 = 50.000)
  2. Murni Besar x 50 harga jackpot yang anda beli
      (contoh:anda membeli 1000 maka:1000 X 50 = 50.000)
  3. BALAK x 200 harga jackpot yang anda beli
      (contoh:anda membeli 1000 maka:1000 X 200 = 200.000)
  4. ENAM DEWA x 6666 harga jackpot yang anda beli
      (contoh:anda membeli 1000 maka:1000 X 6666 = 6.666.000)

Demikian adalah penjelasan dari Multi Jackpot www.sobatpoker88.com terima kasih dan selamat bermain salam hoki dari kami

Ceme Jackpot Winner

TOP ENAM DEWA
No.TanggalNamaPriceWin
119/09 13:56UCOXXX25murni enam6,666,000
219/09 13:32CHAKI303murni enam6,666,000
319/09 13:32RAFA23murni enam666,600
419/09 12:55UDIN171murni enam6,666,000
519/09 12:30AALAALmurni enam3,333,000
TOP BALAK
No.TanggalNamaPriceWin
119/09 14:03DB88A305balak200,000
219/09 14:03DIRNO3balak200,000
319/09 14:02SRNLUCKY007balak20,000
419/09 14:01DEWASKYbalak200,000
519/09 14:01GOSONG90balak20,000
LATEST JACKPOT
No.TanggalNamaPriceWin
119/09 14:03DB88A305balak200,000
219/09 14:03DIRNO3balak200,000
319/09 14:02TEGUHWILDmurni kecil25,000
419/09 14:02GUGUP96murni kecil50,000
519/09 14:02IDK899635murni kecil50,000
619/09 14:02MLEKEXmurni besar50,000
719/09 14:02SRNLUCKY007balak20,000
819/09 14:02BEGJAQIUmurni besar50,000
919/09 14:02DAJAL909murni besar50,000
1019/09 14:02RENDIQQQmurni besar50,000
1119/09 14:02KTIAN123murni besar50,000
1219/09 14:02MEMANG79murni kecil25,000
1319/09 14:02ROSSALIMmurni kecil5,000
1419/09 14:01DEWASKYbalak200,000
1519/09 14:01GOSONG90balak20,000
1619/09 14:01ROTELAmurni kecil50,000
1719/09 14:01SONYA32murni besar50,000
1819/09 14:01IPEEH78murni kecil50,000
1919/09 14:01ANJING567murni kecil25,000
2019/09 14:01KABUKAZENTbalak200,000
2119/09 14:01JOIN231balak200,000
2219/09 14:01KABUKAZENTmurni besar50,000
2319/09 14:01DHENYSETIAmurni besar5,000
2419/09 14:00ADBEJOmurni kecil50,000
2519/09 14:00A888Amurni kecil50,000
2619/09 14:00IDNYUDI8murni besar50,000
2719/09 14:00SENANG_AJAmurni kecil50,000
2819/09 14:00R9X6R9Y250murni kecil5,000
2919/09 14:00TEGUHWILDmurni kecil25,000
3019/09 14:00DEROQQbalak100,000
3119/09 14:00WEROK88murni besar50,000
3219/09 14:00UL4Y168balak200,000
3319/09 14:00101180balak200,000
3419/09 14:00BOLON123murni kecil50,000
3519/09 14:00SIBAKmurni kecil50,000
3619/09 14:00BUMBUM87balak200,000
3719/09 14:00CHKA201balak100,000
3819/09 14:00SAFWAN90murni kecil5,000
3919/09 13:59SOMPILYOIImurni kecil50,000
4019/09 13:59LANCARTRS9balak100,000
4119/09 13:59REDIAN00murni besar50,000
4219/09 13:59NAM_BENGmurni besar5,000
4319/09 13:59BADOFROSESmurni kecil5,000
4419/09 13:59WXJMQHODGEmurni kecil25,000
4519/09 13:59IPEEH78murni besar50,000
4619/09 13:59B48BPA234909murni besar25,000
4719/09 13:59ARSENAL1011balak200,000
4819/09 13:59BIB99murni kecil50,000
4919/09 13:59WOK88murni kecil5,000
5019/09 13:59KEONGPIISmurni kecil25,000